| time (UTC) | temp F | wind direction | speed knots | gust knots | rain 1hr in | rain 24hr in | rain mn in | humidity % | barometer mb |
| 20260831080015 | 60 | 0.0 | 0.0 | 0.00 | 0.00 | 0.00 | 81 | 1018.0 | |
| 20260831075018 | 60 | 0.0 | 0.0 | 0.00 | 0.00 | 0.00 | 80 | 1018.1 | |
| 20260831074022 | 60 | 0.0 | 0.0 | 0.00 | 0.00 | 0.00 | 80 | 1018.0 | |
| 20260831073025 | 61 | 0.0 | 0.0 | 0.00 | 0.00 | 0.00 | 80 | 1018.0 | |
| 20260831072028 | 61 | 0.0 | 0.0 | 0.00 | 0.00 | 0.00 | 79 | 1017.9 | |
| 20260831071031 | 61 | 0.0 | 0.0 | 0.00 | 0.00 | 0.00 | 79 | 1017.6 | |
| 20260831070017 | 62 | 0.0 | 0.0 | 0.00 | 0.00 | 0.00 | 78 | 1017.7 | |
| 20260831065020 | 62 | 0.0 | 0.0 | 0.00 | 0.00 | 0.00 | 78 | 1017.8 | |
| 20260831064023 | 63 | 0.0 | 0.0 | 0.00 | 0.00 | 0.00 | 78 | 1017.7 | |
| 20260831063047 | 63 | 0.0 | 0.0 | 0.00 | 0.00 | 0.00 | 78 | 1017.6 | |
| 20260831062024 | 64 | 0.0 | 0.0 | 0.00 | 0.00 | 0.00 | 78 | 1017.5 | |
| 20260831061056 | 64 | 0.0 | 0.0 | 0.00 | 0.00 | 0.00 | 78 | 1017.4 | |
| 20260831060039 | 64 | 0.0 | 0.0 | 0.00 | 0.00 | 0.00 | 77 | 1017.3 | |
| 20260831055016 | 65 | 0.0 | 0.0 | 0.00 | 0.00 | 0.00 | 77 | 1017.4 | |
| 20260831054146 | 65 | 0.0 | 0.0 | 0.00 | 0.00 | 0.00 | 77 | 1017.3 | |
| 20260831053029 | 66 | 0.0 | 0.0 | 0.00 | 0.00 | 0.00 | 76 | 1017.3 | |
| 20260831052032 | 66 | 0.0 | 0.0 | 0.00 | 0.00 | 0.00 | 75 | 1017.3 | |
| 20260831051017 | 66 | 0.0 | 0.0 | 0.00 | 0.00 | 0.00 | 75 | 1017.2 | |
| 20260831050020 | 67 | 0.0 | 0.0 | 0.00 | 0.00 | 0.00 | 75 | 1017.1 | |
| 20260831045024 | 67 | 0.0 | 0.0 | 0.00 | 0.00 | 0.00 | 74 | 1016.9 | |
| 20260831044027 | 67 | 0.0 | 0.0 | 0.00 | 0.00 | 0.00 | 74 | 1016.9 | |
| 20260831043030 | 67 | 0.0 | 0.0 | 0.00 | 0.00 | 0.00 | 74 | 1016.8 | |
| 20260831042015 | 68 | 0.0 | 0.0 | 0.00 | 0.00 | 0.00 | 73 | 1016.8 | |
| 20260831041019 | 68 | 0.0 | 0.0 | 0.00 | 0.00 | 0.00 | 72 | 1016.6 | |
| 20260831040022 | 69 | 0.0 | 0.0 | 0.00 | 0.00 | 0.00 | 71 | 1016.6 | |
| 20260831035026 | 69 | 0.0 | 0.0 | 0.00 | 0.00 | 0.00 | 70 | 1016.7 | |
| 20260831034049 | 70 | 0.0 | 0.0 | 0.00 | 0.00 | 0.00 | 70 | 1016.8 | |
| 20260831033032 | 70 | 0.0 | 0.0 | 0.00 | 0.00 | 0.00 | 69 | 1016.8 | |
| 20260831032038 | 71 | 0.0 | 0.0 | 0.00 | 0.00 | 0.00 | 69 | 1016.8 | |
| 20260831031041 | 71 | 0.0 | 0.0 | 0.00 | 0.00 | 0.00 | 69 | 1016.8 | |
| 20260831030044 | 71 | 0.0 | 0.0 | 0.00 | 0.00 | 0.00 | 69 | 1016.7 | |
| 20260831025108 | 71 | 0.0 | 0.0 | 0.00 | 0.00 | 0.00 | 69 | 1016.7 | |
| 20260831024024 | 71 | 0.0 | 0.0 | 0.00 | 0.00 | 0.00 | 71 | 1016.7 | |
| 20260831023016 | 71 | 0.0 | 0.0 | 0.00 | 0.00 | 0.00 | 70 | 1016.6 | |
| 20260831022019 | 71 | 0.0 | 0.0 | 0.00 | 0.00 | 0.00 | 70 | 1016.4 | |
| 20260831021016 | 71 | 0.0 | 0.0 | 0.00 | 0.00 | 0.00 | 70 | 1016.5 | |
| 20260831020026 | 71 | 0.0 | 0.0 | 0.00 | 0.00 | 0.00 | 70 | 1016.5 | |
| 20260831015029 | 71 | 0.0 | 0.0 | 0.00 | 0.00 | 0.00 | 70 | 1016.4 | |
| 20260831014032 | 71 | 0.0 | 0.0 | 0.00 | 0.00 | 0.00 | 70 | 1016.2 | |
| 20260831013018 | 71 | 0.0 | 0.0 | 0.00 | 0.00 | 0.00 | 69 | 1016.2 | |
| 20260831012021 | 71 | 0.0 | 0.0 | 0.00 | 0.00 | 0.00 | 69 | 1016.1 | |
| 20260831011045 | 71 | 0.0 | 0.0 | 0.00 | 0.00 | 0.00 | 69 | 1016.0 | |
| 20260831010028 | 72 | 0.0 | 0.0 | 0.00 | 0.00 | 0.00 | 69 | 1016.0 | |
| 20260831005031 | 73 | 0.0 | 0.0 | 0.00 | 0.00 | 0.00 | 65 | 1015.6 | |
| 20260831004036 | 74 | 0.0 | 0.0 | 0.00 | 0.00 | 0.00 | 64 | 1015.5 | |
| 20260831003019 | 74 | 0.0 | 0.0 | 0.00 | 0.00 | 0.00 | 60 | 1015.5 | |
| 20260831002023 | 74 | 0.0 | 0.0 | 0.00 | 0.00 | 0.00 | 59 | 1015.4 | |
| 20260831001026 | 75 | 0.0 | 0.0 | 0.00 | 0.00 | 0.00 | 59 | 1015.4 | |
| 20260831000029 | 75 | 0.0 | 0.0 | 0.00 | 0.00 | 0.00 | 58 | 1015.2 | |
| 20260830235033 | 75 | 0.0 | 0.0 | 0.00 | 0.00 | 0.00 | 58 | 1015.1 | |
| 20260830234018 | 75 | 0.0 | 0.0 | 0.00 | 0.00 | 0.00 | 58 | 1015.1 | |
| 20260830233021 | 75 | 0.0 | 0.0 | 0.00 | 0.00 | 0.00 | 57 | 1015.1 | |
| 20260830232024 | 76 | 225 | 0.0 | 1.7 | 0.00 | 0.00 | 0.00 | 57 | 1015.1 |
| 20260830231028 | 76 | 0.0 | 0.9 | 0.00 | 0.00 | 0.00 | 57 | 1015.2 | |
| 20260830230025 | 76 | 293 | 0.0 | 1.7 | 0.00 | 0.00 | 0.00 | 56 | 1015.2 |
| 20260830225016 | 76 | 225 | 0.0 | 3.5 | 0.00 | 0.00 | 0.00 | 56 | 1015.4 |
| 20260830224020 | 77 | 270 | 0.0 | 1.7 | 0.00 | 0.00 | 0.00 | 55 | 1015.6 |
| 20260830223017 | 77 | 203 | 0.0 | 1.7 | 0.00 | 0.00 | 0.00 | 55 | 1015.6 |
| 20260830222046 | 78 | 0.0 | 1.7 | 0.00 | 0.00 | 0.00 | 54 | 1015.6 | |
| 20260830221029 | 79 | 0.0 | 0.0 | 0.00 | 0.00 | 0.00 | 53 | 1015.6 | |
| 20260830220015 | 80 | 233 | 0.9 | 3.5 | 0.00 | 0.00 | 0.00 | 52 | 1015.5 |
| 20260830215018 | 81 | 251 | 0.9 | 2.6 | 0.00 | 0.00 | 0.00 | 50 | 1015.6 |
| 20260830214021 | 81 | 135 | 0.0 | 1.7 | 0.00 | 0.00 | 0.00 | 51 | 1015.5 |
| 20260830213024 | 79 | 113 | 0.0 | 0.9 | 0.00 | 0.00 | 0.00 | 52 | 1015.6 |
| 20260830212028 | 79 | 280 | 2.6 | 7.0 | 0.00 | 0.00 | 0.00 | 52 | 1015.7 |
| 20260830211051 | 79 | 140 | 0.0 | 1.7 | 0.00 | 0.00 | 0.00 | 52 | 1015.9 |
| 20260830210016 | 79 | 249 | 1.7 | 6.1 | 0.00 | 0.00 | 0.00 | 52 | 1015.8 |
| 20260830205019 | 80 | 0.0 | 0.9 | 0.00 | 0.00 | 0.00 | 52 | 1015.8 | |
| 20260830204023 | 79 | 259 | 0.9 | 2.6 | 0.00 | 0.00 | 0.00 | 51 | 1015.9 |
| 20260830203026 | 79 | 276 | 0.9 | 2.6 | 0.00 | 0.00 | 0.00 | 51 | 1016.0 |
| 20260830202030 | 79 | 0.0 | 0.0 | 0.00 | 0.00 | 0.00 | 52 | 1016.0 | |
| 20260830201015 | 79 | 0.0 | 0.0 | 0.00 | 0.00 | 0.00 | 52 | 1016.1 | |
| 20260830200018 | 79 | 210 | 0.0 | 2.6 | 0.00 | 0.00 | 0.00 | 52 | 1016.3 |
| 20260830195021 | 80 | 0.0 | 0.0 | 0.00 | 0.00 | 0.00 | 50 | 1016.7 | |
| 20260830194025 | 81 | 0.0 | 0.0 | 0.00 | 0.00 | 0.00 | 50 | 1016.7 | |
| 20260830193028 | 81 | 0.0 | 0.0 | 0.00 | 0.00 | 0.00 | 49 | 1016.7 | |
| 20260830192025 | 80 | 0.0 | 0.0 | 0.00 | 0.00 | 0.00 | 49 | 1016.8 | |
| 20260830191017 | 80 | 0.0 | 0.0 | 0.00 | 0.00 | 0.00 | 47 | 1016.8 | |
| 20260830190020 | 81 | 0.0 | 0.0 | 0.00 | 0.00 | 0.00 | 46 | 1017.0 | |
| 20260830185017 | 81 | 0.0 | 0.0 | 0.00 | 0.00 | 0.00 | 45 | 1017.1 | |
| 20260830184026 | 82 | 180 | 0.0 | 0.9 | 0.00 | 0.00 | 0.00 | 44 | 1017.2 |
| 20260830183110 | 83 | 0.0 | 0.0 | 0.00 | 0.00 | 0.00 | 45 | 1017.3 | |
| 20260830182015 | 83 | 223 | 0.9 | 3.5 | 0.00 | 0.00 | 0.00 | 43 | 1017.4 |
| 20260830181018 | 82 | 259 | 1.7 | 4.3 | 0.00 | 0.00 | 0.00 | 43 | 1017.8 |
| 20260830180022 | 82 | 345 | 2.6 | 4.3 | 0.00 | 0.00 | 0.00 | 44 | 1017.7 |
| 20260830175025 | 83 | 248 | 0.0 | 1.7 | 0.00 | 0.00 | 0.00 | 44 | 1017.8 |
| 20260830174028 | 83 | 198 | 1.7 | 5.2 | 0.00 | 0.00 | 0.00 | 45 | 1017.9 |
| 20260830173031 | 82 | 0.0 | 1.7 | 0.00 | 0.00 | 0.00 | 45 | 1017.9 | |
| 20260830172017 | 83 | 250 | 0.9 | 3.5 | 0.00 | 0.00 | 0.00 | 44 | 1018.0 |
| 20260830171020 | 83 | 251 | 3.5 | 7.8 | 0.00 | 0.00 | 0.00 | 45 | 1017.9 |
| 20260830170023 | 82 | 231 | 0.9 | 4.3 | 0.00 | 0.00 | 0.00 | 46 | 1018.1 |
| 20260830165026 | 81 | 233 | 1.7 | 7.0 | 0.00 | 0.00 | 0.00 | 46 | 1018.2 |
| 20260830164030 | 81 | 189 | 2.6 | 7.0 | 0.00 | 0.00 | 0.00 | 47 | 1018.1 |
| 20260830163015 | 80 | 279 | 2.6 | 4.3 | 0.00 | 0.00 | 0.00 | 47 | 1018.1 |
| 20260830162018 | 80 | 227 | 0.9 | 5.2 | 0.00 | 0.00 | 0.00 | 48 | 1018.1 |
| 20260830161042 | 81 | 0.0 | 0.0 | 0.00 | 0.00 | 0.00 | 47 | 1018.2 | |
| 20260830160045 | 83 | 194 | 0.9 | 3.5 | 0.00 | 0.00 | 0.00 | 45 | 1018.3 |
| 20260830155028 | 84 | 157 | 1.7 | 4.3 | 0.00 | 0.00 | 0.00 | 44 | 1018.2 |
| 20260830154045 | 83 | 325 | 3.5 | 9.6 | 0.00 | 0.00 | 0.00 | 45 | 1018.3 |
| 20260830153017 | 82 | 188 | 3.5 | 7.0 | 0.00 | 0.00 | 0.00 | 46 | 1018.4 |
| 20260830152020 | 80 | 113 | 0.0 | 3.5 | 0.00 | 0.00 | 0.00 | 50 | 1018.5 |
| 20260830151037 | 79 | 203 | 0.9 | 4.3 | 0.00 | 0.00 | 0.00 | 51 | 1018.6 |
| 20260830150027 | 79 | 238 | 0.9 | 3.5 | 0.00 | 0.00 | 0.00 | 52 | 1018.7 |
| 20260830145050 | 79 | 233 | 1.7 | 3.5 | 0.00 | 0.00 | 0.00 | 51 | 1018.7 |
| 20260830144015 | 78 | 193 | 0.9 | 2.6 | 0.00 | 0.00 | 0.00 | 52 | 1018.8 |
| 20260830143018 | 78 | 268 | 0.9 | 2.6 | 0.00 | 0.00 | 0.00 | 52 | 1018.9 |
| 20260830142042 | 77 | 233 | 0.9 | 3.5 | 0.00 | 0.00 | 0.00 | 53 | 1019.0 |
| 20260830141025 | 76 | 338 | 0.0 | 2.6 | 0.00 | 0.00 | 0.00 | 54 | 1019.0 |
| 20260830140028 | 74 | 0.0 | 0.9 | 0.00 | 0.00 | 0.00 | 56 | 1019.1 | |
| 20260830135051 | 73 | 251 | 0.9 | 2.6 | 0.00 | 0.00 | 0.00 | 57 | 1019.1 |
| 20260830134016 | 73 | 315 | 0.9 | 3.5 | 0.00 | 0.00 | 0.00 | 58 | 1019.2 |
| 20260830133020 | 72 | 0.9 | 2.6 | 0.00 | 0.00 | 0.00 | 59 | 1019.2 | |
| 20260830132023 | 71 | 248 | 0.0 | 1.7 | 0.00 | 0.00 | 0.00 | 62 | 1019.2 |
| 20260830131027 | 69 | 180 | 0.0 | 0.9 | 0.00 | 0.00 | 0.00 | 64 | 1019.4 |
| 20260830130030 | 69 | 293 | 0.0 | 0.9 | 0.00 | 0.00 | 0.00 | 65 | 1019.4 |
| 20260830125015 | 68 | 270 | 0.9 | 3.5 | 0.00 | 0.00 | 0.00 | 65 | 1019.7 |
| 20260830124019 | 66 | 0.0 | 0.9 | 0.00 | 0.00 | 0.00 | 67 | 1019.7 | |
| 20260830123042 | 66 | 0.0 | 0.0 | 0.00 | 0.00 | 0.00 | 68 | 1019.8 | |
| 20260830122025 | 65 | 0.0 | 0.0 | 0.00 | 0.00 | 0.00 | 68 | 1019.8 | |
| 20260830121028 | 64 | 315 | 0.0 | 1.7 | 0.00 | 0.00 | 0.00 | 69 | 1019.7 |
| 20260830120026 | 64 | 0.0 | 0.0 | 0.00 | 0.00 | 0.00 | 69 | 1019.8 | |
| 20260830115017 | 63 | 0.0 | 0.0 | 0.00 | 0.00 | 0.00 | 70 | 1019.9 | |
| 20260830114020 | 62 | 0.0 | 0.0 | 0.00 | 0.00 | 0.00 | 71 | 1020.0 | |
| 20260830113018 | 62 | 270 | 0.9 | 5.2 | 0.00 | 0.00 | 0.00 | 71 | 1020.0 |
| 20260830112015 | 61 | 0.0 | 0.9 | 0.00 | 0.00 | 0.00 | 71 | 1019.9 | |
| 20260830111030 | 61 | 229 | 0.0 | 1.7 | 0.00 | 0.00 | 0.00 | 71 | 1019.8 |
| 20260830110016 | 61 | 0.0 | 0.9 | 0.00 | 0.00 | 0.00 | 71 | 1019.9 | |
| 20260830105019 | 61 | 0.0 | 0.0 | 0.00 | 0.00 | 0.00 | 71 | 1019.8 | |
| 20260830104022 | 61 | 0.0 | 0.0 | 0.00 | 0.00 | 0.00 | 71 | 1019.9 | |
| 20260830103025 | 61 | 0.0 | 0.0 | 0.00 | 0.00 | 0.00 | 71 | 1019.9 | |
| 20260830102029 | 61 | 0.0 | 0.0 | 0.00 | 0.00 | 0.00 | 71 | 1019.9 | |
| 20260830101032 | 61 | 113 | 0.0 | 0.9 | 0.00 | 0.00 | 0.00 | 71 | 1019.9 |
| 20260830100017 | 61 | 0.0 | 0.0 | 0.00 | 0.00 | 0.00 | 71 | 1019.8 | |
| 20260830095040 | 61 | 0.0 | 0.0 | 0.00 | 0.00 | 0.00 | 71 | 1019.8 | |
| 20260830094024 | 61 | 0.0 | 0.0 | 0.00 | 0.00 | 0.00 | 71 | 1019.9 | |
| 20260830093027 | 61 | 0.0 | 0.0 | 0.00 | 0.00 | 0.00 | 71 | 1020.0 | |
| 20260830092030 | 61 | 0.0 | 0.0 | 0.00 | 0.00 | 0.00 | 71 | 1020.0 | |
| 20260830091036 | 61 | 0.0 | 0.0 | 0.00 | 0.00 | 0.00 | 72 | 1020.3 | |
| 20260830090039 | 61 | 0.0 | 0.0 | 0.00 | 0.00 | 0.00 | 72 | 1020.3 | |
| 20260830085023 | 60 | 0.0 | 0.0 | 0.00 | 0.00 | 0.00 | 73 | 1020.5 | |
| 20260830084106 | 60 | 0.0 | 0.0 | 0.00 | 0.00 | 0.00 | 73 | 1020.5 | |
| 20260830083029 | 60 | 0.0 | 0.0 | 0.00 | 0.00 | 0.00 | 74 | 1020.5 | |
| 20260830082027 | 60 | 0.0 | 0.0 | 0.00 | 0.00 | 0.00 | 74 | 1020.5 | |
| 20260830081038 | 59 | 0.0 | 0.0 | 0.00 | 0.00 | 0.00 | 76 | 1020.4 |